CW2988 Weather Reports


Display with metric or nautical units.
time (UTC)temp
F
wind
direction
speed
MPH
gust
MPH
rain 1hr
in
rain 24hr
in
rain mn
in
humidity
%
barometer
mb
20170626190539 69 318 10.0 17.0 0.00 0.06 0.06 50 1019.1
20170626190438 69 304 10.0 17.0 0.00 0.06 0.06 48 1019.1
20170626190336 69 308 10.0 17.0 0.00 0.06 0.06 48 1019.2
20170626190154 69 298 9.0 17.0 0.00 0.06 0.06 47 1019.2
20170626190050 69 322 10.0 17.0 0.00 0.06 0.06 49 1019.2
20170626185945 69 286 13.0 17.0 0.00 0.06 0.06 47 1019.2
20170626185754 69 304 11.0 18.0 0.00 0.06 0.06 50 1019.2
20170626185652 69 348 11.0 18.0 0.00 0.06 0.06 49 1019.2
20170626185547 69 313 13.0 18.0 0.00 0.06 0.06 49 1019.2
20170626185450 69 344 13.0 18.0 0.00 0.06 0.06 48 1019.2
20170626185349 69 311 13.0 35.0 0.00 0.06 0.06 49 1019.2
20170626185239 69 309 12.0 35.0 0.00 0.06 0.06 48 1019.3
20170626185135 69 301 13.0 35.0 0.00 0.06 0.06 48 1019.3
20170626185056 69 298 14.0 35.0 0.00 0.06 0.06 48 1019.3
20170626184953 69 294 14.0 35.0 0.00 0.06 0.06 49 1019.3
20170626184852 69 323 12.0 35.0 0.00 0.06 0.06 51 1019.3
20170626184749 69 329 13.0 35.0 0.00 0.06 0.06 50 1019.3
20170626184646 69 343 15.0 35.0 0.00 0.06 0.06 50 1019.4
20170626184545 69 324 15.0 35.0 0.00 0.06 0.06 52 1019.4
20170626184442 69 278 13.0 19.0 0.00 0.06 0.06 48 1019.3
20170626184339 69 302 12.0 19.0 0.00 0.06 0.06 50 1019.4
20170626184254 69 295 12.0 19.0 0.00 0.06 0.06 46 1019.4
20170626184137 69 299 14.0 19.0 0.00 0.06 0.06 47 1019.4
20170626184058 69 306 15.0 19.0 0.00 0.06 0.06 48 1019.4
20170626183954 69 293 15.0 19.0 0.00 0.06 0.06 48 1019.4
20170626183850 68 298 12.0 19.0 0.00 0.06 0.06 50 1019.4
20170626183741 68 280 8.0 15.0 0.00 0.06 0.06 51 1019.4
20170626183639 68 286 9.0 15.0 0.00 0.06 0.06 51 1019.4
20170626183557 68 298 10.0 15.0 0.00 0.06 0.06 51 1019.4
20170626183452 68 302 11.0 15.0 0.00 0.06 0.06 51 1019.5
20170626183354 68 299 10.0 15.0 0.00 0.06 0.06 54 1019.5
20170626183248 68 299 9.0 14.0 0.00 0.06 0.06 55 1019.5
20170626183145 68 291 8.0 17.0 0.00 0.06 0.06 52 1019.6
20170626183043 68 294 8.0 17.0 0.00 0.06 0.06 54 1019.6
20170626182940 68 291 9.0 17.0 0.00 0.06 0.06 55 1019.6
20170626182852 68 304 10.0 17.0 0.00 0.06 0.06 53 1019.6
20170626182745 68 294 10.0 17.0 0.00 0.06 0.06 53 1019.6
20170626182643 68 291 10.0 17.0 0.00 0.06 0.06 55 1019.6
20170626182542 68 298 11.0 17.0 0.00 0.06 0.06 52 1019.6
20170626182441 68 300 12.0 17.0 0.00 0.06 0.06 52 1019.6
20170626182339 68 305 12.0 17.0 0.00 0.06 0.06 54 1019.6
20170626182250 68 314 11.0 16.0 0.00 0.06 0.06 54 1019.6
20170626182148 68 309 11.0 16.0 0.00 0.06 0.06 55 1019.6
20170626182045 68 292 10.0 16.0 0.00 0.06 0.06 53 1019.6
20170626181846 68 290 9.0 16.0 0.00 0.06 0.06 54 1019.7
20170626181739 68 298 12.0 16.0 0.00 0.06 0.06 53 1019.6
20170626181636 68 283 12.0 16.0 0.00 0.06 0.06 54 1019.7
20170626181556 68 302 11.0 15.0 0.00 0.06 0.06 54 1019.7
20170626181437 68 292 8.0 15.0 0.00 0.06 0.06 55 1019.7
20170626181338 68 309 9.0 15.0 0.00 0.06 0.06 53 1019.7
20170626181250 68 286 10.0 15.0 0.00 0.06 0.06 54 1019.7
20170626181150 68 296 11.0 15.0 0.00 0.06 0.06 55 1019.6
20170626181046 68 317 10.0 14.0 0.00 0.06 0.06 55 1019.6
20170626180942 68 313 10.0 14.0 0.00 0.06 0.06 55 1019.7
20170626180839 68 321 11.0 14.0 0.00 0.06 0.06 55 1019.7
20170626180750 68 325 11.0 15.0 0.00 0.06 0.06 55 1019.7
20170626180645 68 311 11.0 15.0 0.00 0.06 0.06 57 1019.7
20170626180549 68 306 10.0 15.0 0.00 0.06 0.06 56 1019.7
20170626180448 68 319 8.0 15.0 0.00 0.06 0.06 56 1019.7
20170626180343 68 298 8.0 15.0 0.00 0.06 0.06 58 1019.8
20170626180255 68 305 8.0 15.0 0.00 0.06 0.06 58 1019.8
20170626180149 68 284 8.0 15.0 0.00 0.06 0.06 57 1019.8
20170626180048 68 304 9.0 15.0 0.00 0.06 0.06 56 1019.8
20170626175944 68 320 11.0 15.0 0.00 0.06 0.06 55 1019.8
20170626175845 68 319 11.0 15.0 0.00 0.06 0.06 55 1019.8
20170626175736 68 308 11.0 15.0 0.00 0.06 0.06 55 1019.8
20170626175653 68 274 11.0 15.0 0.00 0.06 0.06 53 1019.8
20170626175549 68 288 12.0 15.0 0.00 0.06 0.06 55 1019.8
20170626175239 68 297 9.0 16.0 0.00 0.06 0.06 57 1019.8
20170626175041 68 286 8.0 16.0 0.00 0.06 0.06 57 1019.8
20170626174938 68 267 9.0 16.0 0.00 0.06 0.06 57 1019.9
20170626174854 68 267 10.0 16.0 0.00 0.06 0.06 59 1019.9
20170626174747 68 279 10.0 16.0 0.00 0.06 0.06 56 1019.9
20170626174644 68 275 11.0 16.0 0.00 0.06 0.06 59 1019.8
20170626174442 68 294 10.0 16.0 0.00 0.06 0.06 56 1019.8
20170626174338 68 261 9.0 15.0 0.00 0.06 0.06 58 1019.8
20170626174250 68 266 10.0 15.0 0.00 0.06 0.06 57 1019.8
20170626174146 68 276 10.0 16.0 0.00 0.06 0.06 60 1019.9
20170626174042 67 275 9.0 16.0 0.00 0.06 0.06 54 1020.0
20170626173958 68 270 9.0 16.0 0.00 0.06 0.06 57 1020.0
20170626173854 68 286 8.0 17.0 0.00 0.06 0.06 57 1019.9
20170626173738 67 282 11.0 18.0 0.00 0.06 0.06 56 1019.9
20170626173638 67 289 12.0 18.0 0.00 0.06 0.06 55 1020.0
20170626173556 68 296 12.0 18.0 0.00 0.06 0.06 53 1020.0
20170626173450 68 292 12.0 18.0 0.00 0.06 0.06 59 1020.0
20170626173345 68 293 12.0 18.0 0.00 0.06 0.06 58 1020.0
20170626173256 67 287 11.0 18.0 0.00 0.06 0.06 58 1020.0
20170626173154 67 304 12.0 18.0 0.00 0.06 0.06 59 1020.0
20170626173051 67 304 12.0 18.0 0.00 0.06 0.06 58 1020.0
20170626172951 67 294 11.0 18.0 0.00 0.06 0.06 59 1020.1
20170626172850 67 313 10.0 18.0 0.00 0.06 0.06 58 1020.1
20170626172752 67 298 11.0 18.0 0.00 0.06 0.06 57 1020.1
20170626172652 67 306 11.0 18.0 0.00 0.06 0.06 59 1020.1
20170626172549 67 303 11.0 18.0 0.00 0.06 0.06 61 1020.2
20170626172444 67 298 13.0 18.0 0.00 0.06 0.06 59 1020.2
20170626172339 67 287 13.0 18.0 0.00 0.06 0.06 58 1020.1
20170626172250 67 281 11.0 15.0 0.00 0.06 0.06 61 1020.1
20170626172149 67 288 10.0 15.0 0.00 0.06 0.06 60 1020.1
20170626172048 67 296 9.0 15.0 0.00 0.06 0.06 61 1020.2
20170626171948 67 273 10.0 15.0 0.00 0.06 0.06 60 1020.2
20170626171847 67 274 10.0 15.0 0.00 0.06 0.06 61 1020.2
20170626171736 67 269 10.0 15.0 0.00 0.06 0.06 63 1020.2
20170626171656 67 294 9.0 14.0 0.00 0.06 0.06 65 1020.2
20170626171539 66 300 10.0 14.0 0.00 0.06 0.06 63 1020.2
20170626171438 66 305 11.0 14.0 0.00 0.06 0.06 63 1020.3
20170626171337 66 304 11.0 14.0 0.00 0.06 0.06 61 1020.3
20170626171145 66 302 9.0 14.0 0.00 0.06 0.06 65 1020.3
20170626171044 66 298 8.0 14.0 0.00 0.06 0.06 65 1020.3
20170626170942 65 298 9.0 14.0 0.00 0.06 0.06 63 1020.3
20170626170901 65 317 9.0 14.0 0.00 0.06 0.06 63 1020.3
20170626170749 65 298 9.0 14.0 0.00 0.06 0.06 65 1020.3
20170626170648 65 303 10.0 14.0 0.00 0.06 0.06 65 1020.3
20170626170436 65 275 9.0 13.0 0.00 0.06 0.06 66 1020.4
20170626170353 65 285 8.0 13.0 0.00 0.06 0.06 66 1020.4
20170626170244 65 288 8.0 13.0 0.00 0.06 0.06 64 1020.4
20170626170139 65 279 8.0 13.0 0.00 0.06 0.06 64 1020.4
20170626170041 65 296 7.0 13.0 0.00 0.06 0.06 63 1020.4
20170626165941 65 298 7.0 13.0 0.00 0.06 0.06 64 1020.4
20170626165835 65 297 9.0 13.0 0.00 0.06 0.06 64 1020.4
20170626165750 65 286 9.0 13.0 0.00 0.06 0.06 62 1020.4
20170626165648 65 260 9.0 12.0 0.00 0.06 0.06 62 1020.4
20170626165544 65 259 9.0 12.0 0.00 0.06 0.06 61 1020.4
20170626165249 65 275 8.0 13.0 0.00 0.06 0.06 64 1020.5
20170626165146 65 276 8.0 13.0 0.00 0.06 0.06 63 1020.4
20170626165043 65 271 8.0 13.0 0.00 0.06 0.06 63 1020.5
20170626165004 65 261 8.0 13.0 0.00 0.06 0.06 64 1020.5
20170626164809 65 267 7.0 13.0 0.00 0.06 0.06 62 1020.5
20170626164653 65 284 9.0 13.0 0.00 0.06 0.06 62 1020.5
20170626164555 65 292 10.0 13.0 0.00 0.06 0.06 64 1020.4
20170626164452 65 270 8.0 12.0 0.00 0.06 0.06 64 1020.4
20170626164351 65 254 6.0 12.0 0.00 0.06 0.06 63 1020.5
20170626164243 65 248 5.0 11.0 0.00 0.06 0.06 64 1020.5
20170626164055 65 300 7.0 12.0 0.00 0.06 0.06 67 1020.6
20170626163952 65 294 7.0 12.0 0.00 0.06 0.06 65 1020.6
20170626163854 65 277 8.0 12.0 0.00 0.06 0.06 63 1020.6
20170626163746 65 270 8.0 12.0 0.00 0.06 0.06 65 1020.7
20170626163640 65 256 8.0 12.0 0.00 0.06 0.06 65 1020.7
20170626163536 65 259 8.0 12.0 0.00 0.06 0.06 67 1020.7
20170626163453 65 291 9.0 12.0 0.00 0.06 0.06 64 1020.7
20170626163352 65 269 9.0 12.0 0.00 0.06 0.06 66 1020.7
20170626163244 65 286 9.0 12.0 0.00 0.06 0.06 64 1020.7
20170626163147 65 287 9.0 12.0 0.00 0.06 0.06 65 1020.7
20170626163044 65 273 8.0 11.0 0.00 0.06 0.06 66 1020.7
20170626162943 65 272 7.0 10.0 0.00 0.06 0.06 66 1020.7
20170626162839 65 271 5.0 10.0 0.00 0.06 0.06 68 1020.7
20170626162753 65 290 6.0 10.0 0.00 0.06 0.06 67 1020.7
20170626162646 65 277 6.0 10.0 0.00 0.06 0.06 67 1020.8
20170626162545 64 259 7.0 11.0 0.00 0.06 0.06 68 1020.7
20170626162447 64 272 7.0 11.0 0.00 0.06 0.06 69 1020.7
20170626162346 64 265 6.0 11.0 0.00 0.06 0.06 69 1020.8
20170626162237 64 278 5.0 11.0 0.00 0.06 0.06 68 1020.8
20170626162155 64 302 6.0 11.0 0.00 0.06 0.06 69 1020.8
20170626162051 64 298 6.0 11.0 0.00 0.06 0.06 68 1020.8
20170626161947 64 292 7.0 11.0 0.00 0.06 0.06 67 1020.8
20170626161755 64 287 7.0 11.0 0.00 0.06 0.06 68 1020.9
20170626161649 64 274 7.0 10.0 0.00 0.06 0.06 70 1020.9
20170626161547 63 296 6.0 10.0 0.00 0.06 0.06 67 1020.9
20170626161445 63 273 6.0 9.0 0.00 0.06 0.06 66 1020.9
20170626161341 64 288 6.0 10.0 0.00 0.06 0.06 69 1020.8
20170626161256 64 274 7.0 10.0 0.00 0.06 0.06 69 1020.8
20170626161151 64 277 7.0 10.0 0.00 0.06 0.06 67 1020.8
20170626161044 64 278 7.0 10.0 0.00 0.06 0.06 67 1020.9
20170626160846 64 263 6.0 11.0 0.00 0.06 0.06 68 1020.8
20170626160740 64 283 7.0 11.0 0.00 0.06 0.06 67 1020.9
20170626160546 64 296 7.0 11.0 0.00 0.06 0.06 67 1020.9
20170626160445 64 304 7.0 11.0 0.00 0.06 0.06 66 1020.8
20170626160343 64 288 8.0 11.0 0.00 0.06 0.06 68 1020.8
20170626160236 64 286 7.0 11.0 0.00 0.06 0.06 67 1020.9
20170626160156 64 285 7.0 11.0 0.00 0.06 0.06 67 1020.9
20170626160052 64 290 5.0 12.0 0.00 0.06 0.06 69 1020.9
20170626155950 64 269 6.0 12.0 0.00 0.06 0.06 69 1020.9
20170626155739 63 288 6.0 12.0 0.00 0.06 0.06 71 1020.9
20170626155638 63 286 7.0 12.0 0.00 0.06 0.06 69 1020.9
20170626155540 63 302 8.0 12.0 0.00 0.06 0.06 67 1020.9
20170626155436 63 286 9.0 12.0 0.00 0.06 0.06 68 1021.0
20170626155354 63 290 9.0 12.0 0.00 0.06 0.06 70 1021.0
20170626155245 63 292 9.0 12.0 0.00 0.06 0.06 67 1021.0
20170626155145 63 299 9.0 11.0 0.00 0.06 0.06 69 1021.0
20170626155040 63 296 8.0 11.0 0.00 0.06 0.06 69 1020.9
20170626154935 63 294 7.0 10.0 0.00 0.06 0.06 69 1021.0
20170626154859 63 295 6.0 9.0 0.00 0.06 0.06 69 1021.0
20170626154746 63 311 7.0 9.0 0.00 0.06 0.06 68 1020.9
20170626154643 62 297 7.0 9.0 0.00 0.06 0.06 69 1021.0
20170626154437 62 294 7.0 10.0 0.00 0.06 0.06 72 1021.0
20170626154335 62 292 7.0 10.0 0.00 0.06 0.06 72 1021.0
20170626154251 62 293 7.0 10.0 0.00 0.06 0.06 74 1021.0
20170626154152 62 305 6.0 10.0 0.00 0.06 0.06 74 1021.0
20170626154050 62 292 6.0 10.0 0.00 0.06 0.06 73 1021.0
20170626153946 62 263 7.0 10.0 0.00 0.06 0.06 73 1021.0
20170626153840 62 286 7.0 10.0 0.00 0.06 0.06 74 1021.0
20170626153752 62 281 8.0 10.0 0.00 0.06 0.06 74 1021.0
20170626153650 62 265 8.0 11.0 0.00 0.06 0.06 74 1021.0
20170626153547 62 290 7.0 11.0 0.00 0.06 0.06 74 1021.0
20170626153446 62 294 7.0 11.0 0.00 0.06 0.06 74 1021.0
20170626153342 62 295 7.0 11.0 0.00 0.06 0.06 72 1021.0
20170626153255 62 290 7.0 11.0 0.00 0.06 0.06 73 1021.0
20170626153151 62 295 7.0 11.0 0.00 0.06 0.06 74 1021.0
20170626153049 62 290 7.0 11.0 0.00 0.06 0.06 75 1020.9
20170626152946 62 285 8.0 11.0 0.00 0.06 0.06 72 1020.9
20170626152738 62 277 7.0 10.0 0.00 0.06 0.06 74 1020.9
20170626152636 62 285 7.0 10.0 0.00 0.06 0.06 74 1020.9
20170626152551 62 282 7.0 10.0 0.00 0.06 0.06 74 1020.9
20170626152444 62 299 7.0 10.0 0.00 0.06 0.06 73 1021.0
20170626152340 62 288 8.0 10.0 0.00 0.06 0.06 74 1020.9
20170626152254 62 300 7.0 10.0 0.00 0.06 0.06 75 1020.9
20170626152149 62 301 7.0 10.0 0.00 0.06 0.06 75 1020.9
20170626152042 62 292 7.0 10.0 0.00 0.06 0.06 74 1021.0
20170626151941 62 300 7.0 11.0 0.00 0.06 0.06 74 1020.9
20170626151859 62 284 7.0 11.0 0.00 0.06 0.06 75 1020.9
20170626151750 62 287 7.0 11.0 0.00 0.06 0.06 76 1020.9
20170626151647 62 298 7.0 11.0 0.00 0.06 0.06 74 1020.9
20170626151544 62 284 7.0 11.0 0.00 0.06 0.06 75 1020.9
20170626151440 62 291 6.0 11.0 0.00 0.06 0.06 75 1020.9
20170626151337 62 289 6.0 11.0 0.00 0.06 0.06 75 1020.9
20170626151252 62 285 7.0 11.0 0.00 0.06 0.06 75 1020.9
20170626151149 62 294 7.0 11.0 0.00 0.06 0.06 75 1020.9
20170626151047 62 283 7.0 11.0 0.00 0.06 0.06 76 1020.9
20170626150944 62 288 6.0 12.0 0.00 0.06 0.06 76 1020.9
20170626150835 62 269 7.0 12.0 0.00 0.06 0.06 76 1020.8
20170626150749 62 290 8.0 12.0 0.00 0.06 0.06 76 1020.8
20170626150645 62 293 8.0 12.0 0.00 0.06 0.06 75 1020.9
20170626150549 62 310 8.0 12.0 0.00 0.06 0.06 75 1020.9
20170626150445 62 285 8.0 12.0 0.00 0.06 0.06 73 1020.9
20170626150340 62 285 9.0 12.0 0.00 0.06 0.06 74 1020.9
20170626150254 62 303 8.0 12.0 0.00 0.06 0.06 74 1020.9
20170626150153 62 295 8.0 12.0 0.00 0.06 0.06 76 1020.9
20170626150051 62 290 7.0 11.0 0.00 0.06 0.06 76 1020.9
20170626145945 62 291 7.0 11.0 0.00 0.06 0.06 76 1020.9
20170626145847 62 296 8.0 11.0 0.00 0.06 0.06 76 1020.9
20170626145738 62 304 8.0 11.0 0.00 0.06 0.06 74 1020.8
20170626145656 62 310 8.0 11.0 0.00 0.06 0.06 74 1020.8
20170626145554 61 300 8.0 11.0 0.00 0.06 0.06 75 1020.8
20170626145453 61 297 8.0 12.0 0.00 0.06 0.06 75 1020.8
20170626145351 61 294 8.0 12.0 0.00 0.06 0.06 75 1020.9
20170626145259 61 292 8.0 12.0 0.00 0.06 0.06 73 1020.8
20170626145140 61 300 9.0 12.0 0.00 0.06 0.06 75 1020.8
20170626145035 61 290 7.0 12.0 0.00 0.06 0.06 77 1020.8
20170626144851 61 277 7.0 12.0 0.00 0.06 0.06 76 1020.9
20170626144809 61 294 8.0 12.0 0.00 0.06 0.06 76 1020.8
20170626144715 61 296 8.0 12.0 0.00 0.06 0.06 75 1020.9
20170626144622 61 290 8.0 12.0 0.00 0.06 0.06 77 1020.9
20170626073750 52 269 0.0 0.0 0.00 0.00 0.00 78 1019.7
20170626073640 52 252 0.0 0.0 0.00 0.00 0.00 78 1019.7
20170626073557 52 254 0.0 0.0 0.00 0.00 0.00 77 1019.7
20170626073403 52 254 0.0 0.0 0.00 0.00 0.00 77 1019.7
20170626073250 52 258 0.0 0.0 0.00 0.00 0.00 77 1019.7
20170626073148 52 261 0.0 0.0 0.00 0.00 0.00 77 1019.7
20170626073045 52 261 0.0 0.0 0.00 0.00 0.00 77 1019.8
20170626072949 52 261 0.0 0.0 0.00 0.00 0.00 77 1019.8
20170626072845 52 261 0.0 0.0 0.00 0.00 0.00 77 1019.8
20170626072738 52 273 0.0 0.0 0.00 0.00 0.00 77 1019.8
20170626072657 52 274 0.0 0.0 0.00 0.00 0.00 77 1019.8
20170626072555 52 274 0.0 0.0 0.00 0.00 0.00 77 1019.8
20170626072454 52 274 0.0 0.0 0.00 0.00 0.00 76 1019.8
20170626072349 52 282 0.0 0.0 0.00 0.00 0.00 76 1019.9
20170626072244 52 282 0.0 0.0 0.00 0.00 0.00 76 1020.0
20170626072141 53 282 0.0 0.0 0.00 0.00 0.00 75 1020.0
20170626072052 53 282 0.0 0.0 0.00 0.00 0.00 75 1020.0
20170626071951 53 282 0.0 0.0 0.00 0.00 0.00 75 1020.0
20170626071849 53 281 0.0 0.0 0.00 0.00 0.00 75 1019.9
20170626071741 53 281 0.0 0.0 0.00 0.00 0.00 75 1019.8
20170626071638 53 285 0.0 2.0 0.00 0.00 0.00 75 1019.8
20170626071540 53 285 0.0 2.0 0.00 0.00 0.00 75 1019.8
20170626071437 53 289 0.0 2.0 0.00 0.00 0.00 75 1019.8
20170626071356 53 289 0.0 2.0 0.00 0.00 0.00 75 1019.8
20170626071249 53 289 0.0 3.0 0.00 0.00 0.00 74 1019.8
20170626071146 53 288 0.0 3.0 0.00 0.00 0.00 74 1019.8
20170626071042 53 298 0.0 3.0 0.00 0.00 0.00 74 1019.9
20170626070941 53 291 1.0 3.0 0.00 0.00 0.00 74 1019.9
20170626070838 53 291 1.0 3.0 0.00 0.00 0.00 74 1019.9
20170626070651 53 276 1.0 3.0 0.00 0.00 0.00 74 1019.8
20170626070549 53 276 2.0 3.0 0.00 0.00 0.00 74 1019.9
20170626070447 53 277 2.0 3.0 0.00 0.00 0.00 74 1019.8
20170626070345 53 275 1.0 3.0 0.00 0.00 0.00 74 1019.8
20170626070238 53 272 1.0 3.0 0.00 0.00 0.00 74 1019.8
20170626070137 53 270 1.0 4.0 0.00 0.00 0.00 74 1019.8
20170626070057 53 274 1.0 4.0 0.00 0.00 0.00 73 1019.8
20170626065957 53 271 1.0 4.0 0.00 0.00 0.00 74 1019.8
20170626065855 53 273 1.0 4.0 0.00 0.00 0.00 74 1019.8
20170626065745 53 269 2.0 4.0 0.00 0.00 0.00 74 1019.9
20170626065643 53 280 2.0 4.0 0.00 0.00 0.00 74 1019.9
20170626065541 53 274 2.0 4.0 0.00 0.00 0.00 74 1019.9
20170626065444 53 273 3.0 4.0 0.00 0.00 0.00 74 1019.8
20170626065341 53 271 3.0 4.0 0.00 0.00 0.00 74 1019.9
20170626065255 53 269 3.0 4.0 0.00 0.00 0.00 74 1019.9
20170626065150 53 266 3.0 4.0 0.00 0.00 0.00 74 1019.9
20170626065045 53 258 3.0 4.0 0.00 0.00 0.00 74 1019.9
20170626064940 53 259 3.0 4.0 0.00 0.00 0.00 74 1019.9
20170626064856 53 259 3.0 4.0 0.00 0.00 0.00 74 1019.9
20170626064651 53 259 4.0 4.0 0.00 0.00 0.00 74 1019.9
20170626064548 53 252 4.0 4.0 0.00 0.00 0.00 74 1019.9
20170626064442 53 260 4.0 4.0 0.00 0.00 0.00 74 1020.0
20170626064337 53 254 3.0 4.0 0.00 0.00 0.00 74 1020.0
20170626064248 53 256 3.0 4.0 0.00 0.00 0.00 74 1020.0
20170626064145 53 258 3.0 3.0 0.00 0.00 0.00 74 1020.0
20170626064048 53 265 3.0 3.0 0.00 0.00 0.00 74 1020.0
20170626063941 53 259 3.0 3.0 0.00 0.00 0.00 74 1020.0
20170626063910 53 259 3.0 3.0 0.00 0.00 0.00 74 1020.0
20170626063747 53 254 3.0 3.0 0.00 0.00 0.00 74 1020.0
20170626063646 53 258 3.0 3.0 0.00 0.00 0.00 74 1020.0
20170626063542 53 261 3.0 3.0 0.00 0.00 0.00 74 1020.0
20170626063440 53 254 3.0 3.0 0.00 0.00 0.00 74 1019.9
20170626063352 53 248 3.0 3.0 0.00 0.00 0.00 73 1019.9
20170626063249 53 256 3.0 3.0 0.00 0.00 0.00 73 1020.0
20170626063149 53 256 3.0 3.0 0.00 0.00 0.00 73 1020.0
20170626063049 53 259 3.0 3.0 0.00 0.00 0.00 73 1020.0
20170626062948 53 260 3.0 3.0 0.00 0.00 0.00 73 1020.1
20170626062844 54 261 3.0 3.0 0.00 0.00 0.00 73 1020.1
20170626062757 54 260 3.0 3.0 0.00 0.00 0.00 73 1020.1
20170626062653 54 257 3.0 3.0 0.00 0.00 0.00 72 1020.1
20170626062557 54 263 3.0 3.0 0.00 0.00 0.00 72 1020.1
20170626062456 54 262 3.0 3.0 0.00 0.00 0.00 72 1020.1
20170626062352 54 260 3.0 3.0 0.00 0.00 0.00 72 1020.1
20170626062242 54 258 3.0 3.0 0.00 0.00 0.00 72 1020.1
20170626062140 54 253 3.0 3.0 0.00 0.00 0.00 72 1020.1
20170626062100 54 257 3.0 3.0 0.00 0.00 0.00 72 1020.1
20170626061938 54 247 3.0 3.0 0.00 0.00 0.00 72 1020.1
20170626061836 54 257 2.0 3.0 0.00 0.00 0.00 72 1020.1
20170626061751 54 251 1.0 3.0 0.00 0.00 0.00 72 1020.1
20170626061647 54 254 0.0 0.0 0.00 0.00 0.00 72 1020.1
20170626061544 54 240 0.0 0.0 0.00 0.00 0.00 72 1020.1
20170626061444 54 244 0.0 0.0 0.00 0.00 0.00 71 1020.1
20170626061337 54 247 0.0 0.0 0.00 0.00 0.00 71 1020.1
20170626061253 54 252 0.0 0.0 0.00 0.00 0.00 71 1020.1
20170626061157 54 248 0.0 0.0 0.00 0.00 0.00 71 1020.1
20170626060956 54 247 0.0 0.0 0.00 0.00 0.00 71 1020.1
20170626060854 54 247 0.0 0.0 0.00 0.00 0.00 70 1020.1
20170626060747 54 253 0.0 0.0 0.00 0.00 0.00 70 1020.1
20170626060642 54 257 0.0 0.0 0.00 0.00 0.00 70 1020.1
20170626060547 55 254 0.0 0.0 0.00 0.00 0.00 70 1020.1
20170626060446 55 259 0.0 0.0 0.00 0.00 0.00 70 1020.1
20170626060342 55 261 0.0 0.0 0.00 0.00 0.00 69 1020.1
20170626060255 55 264 0.0 0.0 0.00 0.00 0.00 69 1020.1
20170626060154 55 273 0.0 0.0 0.00 0.00 0.00 68 1020.2
20170626060053 55 273 0.0 0.0 0.00 0.00 0.00 68 1020.1
20170626055855 55 273 0.0 0.0 0.00 0.00 0.00 68 1020.2
20170626055745 55 273 0.0 0.0 0.00 0.00 0.00 68 1020.2
20170626055643 55 273 0.0 0.0 0.00 0.00 0.00 67 1020.2
20170626055540 55 273 0.0 0.0 0.00 0.00 0.00 67 1020.2
20170626055459 55 273 0.0 0.0 0.00 0.00 0.00 67 1020.2
20170626055355 55 273 0.0 0.0 0.00 0.00 0.00 67 1020.2
20170626055245 55 273 0.0 1.0 0.00 0.00 0.00 67 1020.2
20170626055150 55 273 0.0 2.0 0.00 0.00 0.00 67 1020.2
20170626055049 55 273 0.0 3.0 0.00 0.00 0.00 67 1020.2
20170626054946 55 273 0.0 3.0 0.00 0.00 0.00 67 1020.1
20170626054840 55 273 0.0 3.0 0.00 0.00 0.00 67 1020.2
20170626054754 55 273 0.0 3.0 0.00 0.00 0.00 67 1020.2
20170626054648 55 263 0.0 4.0 0.00 0.00 0.00 67 1020.2
20170626054547 55 263 1.0 4.0 0.00 0.00 0.00 67 1020.2
20170626054440 55 254 2.0 4.0 0.00 0.00 0.00 67 1020.2
20170626054253 55 253 3.0 4.0 0.00 0.00 0.00 67 1020.2
20170626054146 55 257 3.0 4.0 0.00 0.00 0.00 67 1020.2
20170626054046 55 252 3.0 4.0 0.00 0.00 0.00 68 1020.2
20170626053943 55 252 3.0 4.0 0.00 0.00 0.00 68 1020.2
20170626053837 55 245 3.0 4.0 0.00 0.00 0.00 68 1020.2
20170626053752 55 240 2.0 4.0 0.00 0.00 0.00 68 1020.2
20170626053648 55 238 1.0 3.0 0.00 0.00 0.00 68 1020.2
20170626053551 55 236 0.0 1.0 0.00 0.00 0.00 68 1020.2
20170626053444 55 234 0.0 1.0 0.00 0.00 0.00 68 1020.1
20170626053341 55 249 0.0 1.0 0.00 0.00 0.00 68 1020.2
20170626053140 55 281 0.0 1.0 0.00 0.00 0.00 68 1020.2
20170626053038 55 267 0.0 1.0 0.00 0.00 0.00 69 1020.3
20170626052937 55 274 0.0 0.0 0.00 0.00 0.00 69 1020.3
20170626052857 55 274 0.0 0.0 0.00 0.00 0.00 69 1020.3
20170626052749 55 274 0.0 0.0 0.00 0.00 0.00 69 1020.2
20170626052641 55 275 0.0 0.0 0.00 0.00 0.00 69 1020.2
20170626052540 55 274 0.0 0.0 0.00 0.00 0.00 69 1020.3
20170626052440 55 274 0.0 0.0 0.00 0.00 0.00 69 1020.3
20170626052339 55 275 0.0 1.0 0.00 0.00 0.00 70 1020.3
20170626052237 55 274 0.0 1.0 0.00 0.00 0.00 70 1020.3
20170626052154 55 274 0.0 1.0 0.00 0.00 0.00 70 1020.3
20170626052052 55 274 0.0 2.0 0.00 0.00 0.00 70 1020.3
20170626051952 55 274 0.0 2.0 0.00 0.00 0.00 70 1020.3
20170626051847 55 274 0.0 2.0 0.00 0.00 0.00 70 1020.3
20170626051738 55 274 0.0 2.0 0.00 0.00 0.00 70 1020.3
20170626051636 55 274 0.0 2.0 0.00 0.00 0.00 70 1020.4
20170626051558 55 274 1.0 2.0 0.00 0.00 0.00 70 1020.4
20170626051353 55 274 1.0 2.0 0.00 0.00 0.00 70 1020.3
20170626051142 55 277 1.0 2.0 0.00 0.00 0.00 70 1020.4
20170626051040 54 274 1.0 2.0 0.00 0.00 0.00 70 1020.4
20170626050938 54 275 1.0 2.0 0.00 0.00 0.00 70 1020.4
20170626050856 54 275 2.0 2.0 0.00 0.00 0.00 71 1020.4
20170626050749 54 279 2.0 3.0 0.00 0.00 0.00 71 1020.4
20170626050648 54 273 2.0 3.0 0.00 0.00 0.00 71 1020.5
20170626050445 54 277 2.0 3.0 0.00 0.00 0.00 71 1020.4
20170626050342 54 273 2.0 3.0 0.00 0.00 0.00 71 1020.5
20170626050250 54 271 2.0 3.0 0.00 0.00 0.00 71 1020.5
20170626050149 54 268 2.0 3.0 0.00 0.00 0.00 71 1020.5
20170626050040 54 268 2.0 3.0 0.00 0.00 0.00 71 1020.4
20170626045855 54 273 3.0 3.0 0.00 0.00 0.00 71 1020.4
20170626045743 54 276 3.0 3.0 0.00 0.00 0.00 71 1020.5
20170626045558 54 273 3.0 3.0 0.00 0.00 0.00 71 1020.5
20170626045438 55 266 2.0 4.0 0.00 0.00 0.00 70 1020.5
20170626045357 55 265 2.0 4.0 0.00 0.00 0.00 70 1020.5
20170626045240 55 270 2.0 4.0 0.00 0.00 0.00 70 1020.4
20170626045157 55 257 2.0 4.0 0.00 0.00 0.00 70 1020.4
20170626045054 55 267 2.0 4.0 0.00 0.00 0.00 70 1020.4
20170626045009 55 261 3.0 4.0 0.00 0.00 0.00 70 1020.4
20170626044811 55 263 3.0 4.0 0.00 0.00 0.00 70 1020.4
20170626044654 55 263 3.0 4.0 0.00 0.00 0.00 70 1020.5
20170626044555 55 262 3.0 3.0 0.00 0.00 0.00 70 1020.5
20170626044453 55 260 3.0 3.0 0.00 0.00 0.00 70 1020.4
20170626044350 55 264 3.0 3.0 0.00 0.00 0.00 70 1020.4
20170626044242 55 265 3.0 3.0 0.00 0.00 0.00 70 1020.4
20170626044036 55 265 3.0 4.0 0.00 0.00 0.00 70 1020.4
20170626043951 55 259 3.0 4.0 0.00 0.00 0.00 70 1020.4
20170626043853 55 258 3.0 4.0 0.00 0.00 0.00 70 1020.5
20170626043745 55 267 3.0 4.0 0.00 0.00 0.00 70 1020.4
20170626043636 55 256 3.0 4.0 0.00 0.00 0.00 70 1020.4
20170626043557 55 265 3.0 4.0 0.00 0.00 0.00 70 1020.4
20170626043455 55 265 3.0 4.0 0.00 0.00 0.00 70 1020.5
20170626043345 55 269 3.0 4.0 0.00 0.00 0.00 70 1020.4
20170626043254 55 271 3.0 4.0 0.00 0.00 0.00 70 1020.4
20170626043148 55 267 3.0 4.0 0.00 0.00 0.00 71 1020.4
20170626043048 55 265 3.0 4.0 0.00 0.00 0.00 71 1020.4
20170626042943 55 267 3.0 4.0 0.00 0.00 0.00 71 1020.5
20170626042841 55 261 3.0 4.0 0.00 0.00 0.00 71 1020.5
20170626042756 55 263 3.0 4.0 0.00 0.00 0.00 71 1020.5
20170626042653 55 261 3.0 4.0 0.00 0.00 0.00 71 1020.4
20170626042549 54 263 3.0 4.0 0.00 0.00 0.00 71 1020.5
20170626042500 54 256 3.0 4.0 0.00 0.00 0.00 71 1020.5
20170626042356 54 264 3.0 3.0 0.00 0.00 0.00 71 1020.5
20170626042249 55 258 3.0 3.0 0.00 0.00 0.00 71 1020.5
20170626042147 55 261 3.0 3.0 0.00 0.00 0.00 71 1020.5
20170626042043 55 257 2.0 3.0 0.00 0.00 0.00 70 1020.5
20170626041941 55 259 2.0 3.0 0.00 0.00 0.00 70 1020.5
20170626041837 55 251 1.0 2.0 0.00 0.00 0.00 69 1020.5
20170626041754 55 250 1.0 2.0 0.00 0.00 0.00 69 1020.5
20170626041656 55 262 1.0 2.0 0.00 0.00 0.00 69 1020.5
20170626041557 55 262 1.0 2.0 0.00 0.00 0.00 69 1020.5
20170626041351 55 239 1.0 3.0 0.00 0.00 0.00 68 1020.4
20170626041244 55 274 1.0 3.0 0.00 0.00 0.00 68 1020.4
20170626041141 55 252 1.0 3.0 0.00 0.00 0.00 68 1020.4
20170626041039 56 267 1.0 3.0 0.00 0.00 0.00 68 1020.4
20170626040941 56 263 1.0 3.0 0.00 0.00 0.00 68 1020.4
20170626040839 56 261 1.0 3.0 0.00 0.00 0.00 67 1020.4
20170626040755 56 264 2.0 3.0 0.00 0.00 0.00 67 1020.4
20170626040653 56 269 2.0 3.0 0.00 0.00 0.00 67 1020.4
20170626040552 56 273 2.0 4.0 0.00 0.00 0.00 67 1020.4
20170626040444 56 271 3.0 4.0 0.00 0.00 0.00 67 1020.5
20170626040342 56 275 3.0 4.0 0.00 0.00 0.00 67 1020.5
20170626040157 56 271 2.0 4.0 0.00 0.00 0.00 67 1020.5
20170626040056 56 263 2.0 4.0 0.00 0.00 0.00 67 1020.5
20170626035954 56 267 2.0 4.0 0.00 0.00 0.00 66 1020.5
20170626035744 56 266 2.0 3.0 0.00 0.00 0.00 66 1020.5
20170626035643 56 256 3.0 3.0 0.00 0.00 0.00 66 1020.6
20170626035545 56 273 3.0 3.0 0.00 0.00 0.00 66 1020.5
20170626035441 56 271 3.0 3.0 0.00 0.00 0.00 66 1020.5
20170626035339 56 269 3.0 3.0 0.00 0.00 0.00 66 1020.5
20170626035249 56 277 3.0 3.0 0.00 0.00 0.00 66 1020.5
20170626035148 56 262 3.0 4.0 0.00 0.00 0.00 66 1020.5
20170626035042 56 259 3.0 4.0 0.00 0.00 0.00 66 1020.5
20170626034941 56 267 3.0 4.0 0.00 0.00 0.00 66 1020.5
20170626034842 56 264 3.0 4.0 0.00 0.00 0.00 66 1020.5
20170626034755 56 258 3.0 4.0 0.00 0.00 0.00 66 1020.5
20170626034652 56 265 3.0 4.0 0.00 0.00 0.00 66 1020.5
20170626034549 57 265 3.0 4.0 0.00 0.00 0.00 66 1020.5
20170626034444 57 271 3.0 4.0 0.00 0.00 0.00 66 1020.5
20170626034341 57 271 3.0 5.0 0.00 0.00 0.00 66 1020.5
20170626034254 57 274 3.0 5.0 0.00 0.00 0.00 66 1020.5
20170626034156 57 277 3.0 5.0 0.00 0.00 0.00 66 1020.5
20170626034042 57 273 3.0 5.0 0.00 0.00 0.00 66 1020.5
20170626033939 57 277 4.0 5.0 0.00 0.00 0.00 66 1020.5
20170626033856 57 278 4.0 5.0 0.00 0.00 0.00 66 1020.5
20170626033748 57 273 4.0 5.0 0.00 0.00 0.00 66 1020.5
20170626033644 57 276 4.0 5.0 0.00 0.00 0.00 65 1020.5
20170626033544 57 275 5.0 5.0 0.00 0.00 0.00 65 1020.5
20170626033446 57 275 5.0 5.0 0.00 0.00 0.00 65 1020.5
20170626033342 57 273 4.0 5.0 0.00 0.00 0.00 65 1020.5
20170626033246 57 277 4.0 5.0 0.00 0.00 0.00 65 1020.5
20170626033057 57 279 5.0 5.0 0.00 0.00 0.00 65 1020.5
20170626032953 57 277 4.0 5.0 0.00 0.00 0.00 65 1020.5
20170626032852 57 278 4.0 5.0 0.00 0.00 0.00 65 1020.5
20170626032738 57 278 4.0 5.0 0.00 0.00 0.00 65 1020.5
20170626032653 57 278 4.0 5.0 0.00 0.00 0.00 65 1020.5
20170626032550 57 276 4.0 5.0 0.00 0.00 0.00 65 1020.5
20170626032448 57 277 4.0 5.0 0.00 0.00 0.00 65 1020.5
20170626032345 57 275 4.0 5.0 0.00 0.00 0.00 65 1020.5
20170626032236 57 275 4.0 5.0 0.00 0.00 0.00 65 1020.5
20170626032156 57 276 4.0 4.0 0.00 0.00 0.00 65 1020.5
20170626031954 57 271 3.0 4.0 0.00 0.00 0.00 65 1020.4
20170626031852 57 267 3.0 4.0 0.00 0.00 0.00 65 1020.4
20170626031758 57 271 3.0 4.0 0.00 0.00 0.00 65 1020.4
20170626031655 57 272 3.0 4.0 0.00 0.00 0.00 65 1020.4
20170626031553 57 270 3.0 4.0 0.00 0.00 0.00 65 1020.4
20170626031447 57 278 3.0 4.0 0.00 0.00 0.00 65 1020.4
20170626031344 57 276 4.0 4.0 0.00 0.00 0.00 65 1020.3
20170626031240 57 277 4.0 4.0 0.00 0.00 0.00 65 1020.3
20170626031158 57 277 4.0 4.0 0.00 0.00 0.00 65 1020.3
20170626031055 57 277 4.0 4.0 0.00 0.00 0.00 65 1020.4
20170626030952 57 275 4.0 4.0 0.00 0.00 0.00 65 1020.4
20170626030847 57 276 3.0 4.0 0.00 0.00 0.00 65 1020.4
20170626030757 57 278 3.0 4.0 0.00 0.00 0.00 65 1020.4
20170626030655 57 281 3.0 4.0 0.00 0.00 0.00 65 1020.4
20170626030548 57 283 3.0 4.0 0.00 0.00 0.00 65 1020.4
20170626030344 57 283 2.0 3.0 0.00 0.00 0.00 65 1020.4
20170626030247 57 287 2.0 3.0 0.00 0.00 0.00 65 1020.4
20170626030143 57 287 2.0 3.0 0.00 0.00 0.00 65 1020.4
20170626030041 58 287 2.0 4.0 0.00 0.00 0.00 65 1020.4
20170626025855 58 287 3.0 4.0 0.00 0.00 0.00 64 1020.4
20170626025744 58 287 3.0 4.0 0.00 0.00 0.00 64 1020.4
20170626025638 58 287 3.0 4.0 0.00 0.00 0.00 63 1020.4
20170626025555 58 287 3.0 4.0 0.00 0.00 0.00 63 1020.4
20170626025453 58 287 3.0 4.0 0.00 0.00 0.00 63 1020.4
20170626025347 58 287 3.0 4.0 0.00 0.00 0.00 63 1020.3
20170626025238 58 287 3.0 4.0 0.00 0.00 0.00 63 1020.4
20170626025154 58 287 3.0 4.0 0.00 0.00 0.00 62 1020.4
20170626025051 58 287 3.0 4.0 0.00 0.00 0.00 62 1020.3
20170626024952 58 287 4.0 4.0 0.00 0.00 0.00 62 1020.3
20170626024848 58 287 4.0 4.0 0.00 0.00 0.00 62 1020.3
20170626024739 58 281 4.0 4.0 0.00 0.00 0.00 62 1020.3
20170626024652 58 281 4.0 4.0 0.00 0.00 0.00 63 1020.3
20170626024547 58 281 4.0 4.0 0.00 0.00 0.00 62 1020.4
20170626024443 58 279 3.0 4.0 0.00 0.00 0.00 62 1020.3
20170626024339 59 279 3.0 4.0 0.00 0.00 0.00 62 1020.3
20170626024253 59 279 3.0 4.0 0.00 0.00 0.00 62 1020.3
20170626024151 59 279 3.0 3.0 0.00 0.00 0.00 62 1020.3
20170626024047 59 279 3.0 3.0 0.00 0.00 0.00 62 1020.3
20170626023943 59 279 3.0 3.0 0.00 0.00 0.00 62 1020.3
20170626023839 59 279 3.0 3.0 0.00 0.00 0.00 61 1020.3
20170626023752 59 278 2.0 3.0 0.00 0.00 0.00 61 1020.3
20170626023649 59 277 2.0 2.0 0.00 0.00 0.00 61 1020.2
20170626023549 59 277 2.0 2.0 0.00 0.00 0.00 61 1020.2
20170626023446 59 277 2.0 3.0 0.00 0.00 0.00 61 1020.2
20170626023342 59 277 2.0 3.0 0.00 0.00 0.00 61 1020.2
20170626023255 59 277 2.0 3.0 0.00 0.00 0.00 61 1020.2
20170626023143 59 277 2.0 3.0 0.00 0.00 0.00 60 1020.2
20170626023041 59 277 2.0 3.0 0.00 0.00 0.00 60 1020.2
20170626022958 59 277 2.0 3.0 0.00 0.00 0.00 60 1020.2
20170626022855 59 277 2.0 3.0 0.00 0.00 0.00 60 1020.2
20170626022750 59 277 2.0 3.0 0.00 0.00 0.00 60 1020.2
20170626022649 60 277 3.0 3.0 0.00 0.00 0.00 60 1020.2
20170626022543 60 277 3.0 3.0 0.00 0.00 0.00 59 1020.2
20170626022441 60 276 3.0 3.0 0.00 0.00 0.00 59 1020.2
20170626022358 60 276 3.0 3.0 0.00 0.00 0.00 59 1020.2
20170626022250 60 275 3.0 3.0 0.00 0.00 0.00 59 1020.1
20170626022148 60 275 2.0 3.0 0.00 0.00 0.00 59 1020.1
20170626022049 60 275 2.0 3.0 0.00 0.00 0.00 59 1020.1
20170626021948 60 275 2.0 4.0 0.00 0.00 0.00 59 1020.1
20170626021843 60 275 2.0 4.0 0.00 0.00 0.00 59 1020.1
20170626021751 60 275 2.0 4.0 0.00 0.00 0.00 59 1020.1
20170626021651 60 275 2.0 4.0 0.00 0.00 0.00 58 1020.1
20170626021546 60 275 2.0 4.0 0.00 0.00 0.00 58 1020.1
20170626021444 61 275 2.0 5.0 0.00 0.00 0.00 58 1020.2
20170626021342 61 275 3.0 5.0 0.00 0.00 0.00 57 1020.2
20170626021256 61 277 3.0 5.0 0.00 0.00 0.00 57 1020.2
20170626021151 61 277 3.0 5.0 0.00 0.00 0.00 57 1020.2
20170626021045 61 279 3.0 5.0 0.00 0.00 0.00 56 1020.2
20170626020839 61 292 4.0 5.0 0.00 0.00 0.00 55 1020.2
20170626020751 62 294 4.0 5.0 0.00 0.00 0.00 55 1020.2
20170626020649 62 296 4.0 5.0 0.00 0.00 0.00 55 1020.2
20170626020548 62 298 4.0 5.0 0.00 0.00 0.00 54 1020.2
20170626020442 62 299 5.0 5.0 0.00 0.00 0.00 54 1020.2
20170626020337 62 302 5.0 5.0 0.00 0.00 0.00 54 1020.2
20170626020251 62 302 5.0 5.0 0.00 0.00 0.00 54 1020.2
20170626020149 62 302 5.0 5.0 0.00 0.00 0.00 54 1020.2
20170626020047 62 302 5.0 5.0 0.00 0.00 0.00 54 1020.1
20170626015943 62 302 5.0 5.0 0.00 0.00 0.00 54 1020.1
20170626015841 62 302 5.0 5.0 0.00 0.00 0.00 53 1020.1
20170626015755 62 302 5.0 5.0 0.00 0.00 0.00 53 1020.1
20170626015651 62 301 5.0 5.0 0.00 0.00 0.00 53 1020.1
20170626015548 63 298 5.0 6.0 0.00 0.00 0.00 53 1020.2
20170626015446 63 298 5.0 6.0 0.00 0.00 0.00 53 1020.1
20170626015342 63 298 4.0 6.0 0.00 0.00 0.00 52 1020.1
20170626015257 63 299 4.0 6.0 0.00 0.00 0.00 51 1020.1
20170626015157 63 302 4.0 6.0 0.00 0.00 0.00 51 1020.1
20170626015055 63 305 4.0 7.0 0.00 0.00 0.00 50 1020.2
20170626014950 63 307 5.0 7.0 0.00 0.00 0.00 50 1020.1
20170626014847 63 310 5.0 7.0 0.00 0.00 0.00 50 1020.2
20170626014741 64 308 5.0 7.0 0.00 0.00 0.00 50 1020.1
20170626014646 64 311 5.0 7.0 0.00 0.00 0.00 50 1020.1
20170626014538 64 315 5.0 7.0 0.00 0.00 0.00 49 1020.1
20170626014455 64 304 5.0 7.0 0.00 0.00 0.00 49 1020.1
20170626014353 64 312 5.0 7.0 0.00 0.00 0.00 49 1020.1
20170626014246 64 313 4.0 6.0 0.00 0.00 0.00 49 1020.1
20170626014140 64 315 4.0 5.0 0.00 0.00 0.00 49 1020.1
20170626014037 64 314 4.0 5.0 0.00 0.00 0.00 49 1020.1
20170626013953 64 311 4.0 5.0 0.00 0.00 0.00 49 1020.1
20170626013852 64 309 4.0 5.0 0.00 0.00 0.00 49 1020.1
20170626013743 65 305 4.0 6.0 0.00 0.00 0.00 48 1020.1
20170626013642 65 303 4.0 6.0 0.00 0.00 0.00 48 1020.1
20170626013540 65 303 4.0 6.0 0.00 0.00 0.00 48 1020.1
20170626013437 65 300 4.0 7.0 0.00 0.00 0.00 48 1020.1
20170626013356 65 301 4.0 7.0 0.00 0.00 0.00 48 1020.1
20170626013247 65 303 4.0 7.0 0.00 0.00 0.00 47 1020.1
20170626013158 65 309 4.0 7.0 0.00 0.00 0.00 47 1020.1
20170626013051 65 310 5.0 7.0 0.00 0.00 0.00 47 1020.1
20170626012947 66 309 5.0 8.0 0.00 0.00 0.00 46 1020.1
20170626012840 66 313 5.0 8.0 0.00 0.00 0.00 46 1020.2
20170626012753 66 311 5.0 8.0 0.00 0.00 0.00 46 1020.2
20170626012647 66 314 6.0 8.0 0.00 0.00 0.00 46 1020.1
20170626012543 66 313 6.0 8.0 0.00 0.00 0.00 45 1020.1
20170626012440 66 317 6.0 8.0 0.00 0.00 0.00 45 1020.1
20170626012357 66 323 5.0 9.0 0.00 0.00 0.00 45 1020.1
20170626012245 66 313 6.0 9.0 0.00 0.00 0.00 45 1020.2
20170626012147 66 311 7.0 9.0 0.00 0.00 0.00 44 1020.1
20170626012045 66 323 7.0 9.0 0.00 0.00 0.00 44 1020.1
20170626011942 66 313 6.0 10.0 0.00 0.00 0.00 45 1020.1
20170626011838 66 318 6.0 10.0 0.00 0.00 0.00 45 1020.1
20170626011752 66 315 6.0 10.0 0.00 0.00 0.00 44 1020.1
20170626011650 67 309 6.0 10.0 0.00 0.00 0.00 44 1020.1
20170626011548 67 314 6.0 10.0 0.00 0.00 0.00 44 1020.1
20170626011444 67 321 6.0 10.0 0.00 0.00 0.00 44 1020.1
20170626011343 67 327 8.0 11.0 0.00 0.00 0.00 44 1020.1
20170626011255 67 315 7.0 11.0 0.00 0.00 0.00 44 1020.1
20170626011155 67 319 8.0 11.0 0.00 0.00 0.00 43 1020.1
20170626011051 67 323 8.0 11.0 0.00 0.00 0.00 44 1020.1
20170626010948 67 318 8.0 11.0 0.00 0.00 0.00 44 1020.0
20170626010843 67 324 7.0 11.0 0.00 0.00 0.00 44 1020.1
20170626010737 67 325 8.0 11.0 0.00 0.00 0.00 44 1020.1
20170626010554 67 321 8.0 11.0 0.00 0.00 0.00 43 1020.0
20170626010452 67 309 8.0 11.0 0.00 0.00 0.00 43 1020.0
20170626010349 67 312 8.0 11.0 0.00 0.00 0.00 43 1020.0
20170626010139 67 325 8.0 12.0 0.00 0.00 0.00 43 1020.0
20170626010038 68 325 8.0 12.0 0.00 0.00 0.00 43 1020.0
20170626005955 68 316 8.0 12.0 0.00 0.00 0.00 43 1020.0
20170626005852 68 323 8.0 12.0 0.00 0.00 0.00 43 1019.9
20170626005745 68 314 8.0 12.0 0.00 0.00 0.00 43 1020.0
20170626005641 68 319 9.0 12.0 0.00 0.00 0.00 42 1020.0
20170626005536 68 300 9.0 12.0 0.00 0.00 0.00 42 1020.0
20170626005454 68 314 10.0 12.0 0.00 0.00 0.00 42 1020.0
20170626005356 68 321 10.0 13.0 0.00 0.00 0.00 42 1020.0
20170626005258 68 318 10.0 13.0 0.00 0.00 0.00 42 1020.0
20170626005154 68 320 10.0 13.0 0.00 0.00 0.00 41 1020.1
20170626005050 68 319 11.0 13.0 0.00 0.00 0.00 41 1019.9
20170626004949 68 313 10.0 13.0 0.00 0.00 0.00 41 1020.1
20170626004803 68 316 10.0 16.0 0.00 0.00 0.00 40 1020.0
20170626004639 68 314 10.0 16.0 0.00 0.00 0.00 41 1020.0
20170626004536 68 317 9.0 16.0 0.00 0.00 0.00 41 1020.0
20170626004455 68 311 9.0 16.0 0.00 0.00 0.00 40 1020.0
20170626004243 68 301 10.0 16.0 0.00 0.00 0.00 39 1020.1
20170626004141 68 314 11.0 18.0 0.00 0.00 0.00 40 1020.1
20170626004040 68 304 11.0 18.0 0.00 0.00 0.00 39 1020.1
20170626003953 68 321 11.0 18.0 0.00 0.00 0.00 39 1020.1
20170626003849 69 317 10.0 18.0 0.00 0.00 0.00 40 1020.1
20170626003743 69 298 11.0 18.0 0.00 0.00 0.00 39 1020.1
20170626003642 69 313 12.0 18.0 0.00 0.00 0.00 38 1020.1
20170626003557 69 306 12.0 18.0 0.00 0.00 0.00 38 1020.1
20170626003455 69 298 13.0 18.0 0.00 0.00 0.00 38 1020.1
20170626003348 69 309 14.0 18.0 0.00 0.00 0.00 38 1020.1
20170626003258 69 292 14.0 18.0 0.00 0.00 0.00 38 1020.1
20170626003155 69 316 13.0 18.0 0.00 0.00 0.00 38 1020.2
20170626003053 69 315 13.0 18.0 0.00 0.00 0.00 38 1020.2
20170626002947 69 304 13.0 18.0 0.00 0.00 0.00 38 1020.2
20170626002843 69 313 13.0 18.0 0.00 0.00 0.00 37 1020.1
20170626002758 69 317 13.0 16.0 0.00 0.00 0.00 39 1020.1
20170626002655 69 311 13.0 15.0 0.00 0.00 0.00 38 1020.2
20170626002551 69 311 11.0 15.0 0.00 0.00 0.00 40 1020.2
20170626002447 69 317 10.0 14.0 0.00 0.00 0.00 40 1020.2
20170626002349 69 308 10.0 14.0 0.00 0.00 0.00 40 1020.2
20170626002142 69 311 9.0 14.0 0.00 0.00 0.00 40 1020.2
20170626002039 69 309 9.0 14.0 0.00 0.00 0.00 40 1020.1
20170626001954 69 301 10.0 14.0 0.00 0.00 0.00 40 1020.1
20170626001850 69 313 11.0 14.0 0.00 0.00 0.00 39 1020.2
20170626001743 69 311 11.0 14.0 0.00 0.00 0.00 39 1020.1
20170626001646 69 309 11.0 14.0 0.00 0.00 0.00 39 1020.1
20170626001544 69 304 9.0 14.0 0.00 0.00 0.00 40 1020.2
20170626001443 69 318 9.0 14.0 0.00 0.00 0.00 41 1020.2
20170626001341 69 325 9.0 14.0 0.00 0.00 0.00 40 1020.2
20170626001253 69 323 10.0 14.0 0.00 0.00 0.00 41 1020.2
20170626001149 69 303 10.0 14.0 0.00 0.00 0.00 39 1020.1
20170626001044 69 319 10.0 14.0 0.00 0.00 0.00 39 1020.1
20170626000943 69 315 10.0 15.0 0.00 0.00 0.00 39 1020.1
20170626000843 69 311 11.0 15.0 0.00 0.00 0.00 39 1020.2
20170626000756 69 303 11.0 15.0 0.00 0.00 0.00 38 1020.2
20170626000654 69 307 10.0 15.0 0.00 0.00 0.00 38 1020.1
20170626000551 69 308 10.0 16.0 0.00 0.00 0.00 40 1020.1
20170626000450 69 323 10.0 17.0 0.00 0.00 0.00 39 1020.2
20170626000348 69 299 10.0 17.0 0.00 0.00 0.00 39 1020.1
20170626000239 69 312 11.0 17.0 0.00 0.00 0.00 39 1020.1
20170626000136 69 315 12.0 17.0 0.00 0.00 0.00 37 1020.1
20170626000057 69 311 12.0 17.0 0.00 0.00 0.00 37 1020.1
20170625235954 69 317 13.0 17.0 0.00 0.00 0.00 37 1020.0
20170625235853 69 317 13.0 17.0 0.00 0.00 0.00 37 1020.1
20170625235746 69 311 13.0 17.0 0.00 0.00 0.00 38 1020.1
20170625235643 69 314 12.0 17.0 0.00 0.00 0.00 38 1020.1
20170625235540 70 306 11.0 15.0 0.00 0.00 0.00 39 1020.1
20170625235438 70 315 10.0 15.0 0.00 0.00 0.00 39 1020.1
20170625235357 70 292 10.0 15.0 0.00 0.00 0.00 40 1020.1
20170625235249 70 315 12.0 16.0 0.00 0.00 0.00 39 1020.1
20170625235146 70 298 10.0 16.0 0.00 0.00 0.00 38 1020.1
20170625235041 70 317 9.0 16.0 0.00 0.00 0.00 38 1020.1
20170625234938 70 308 10.0 18.0 0.00 0.00 0.00 39 1020.0
20170625234857 69 300 11.0 18.0 0.00 0.00 0.00 39 1020.0
20170625234754 69 311 11.0 18.0 0.00 0.00 0.00 38 1020.1
20170625234651 70 302 11.0 18.0 0.00 0.00 0.00 39 1020.0
20170625234547 69 311 12.0 18.0 0.00 0.00 0.00 38 1020.0
20170625234446 70 315 12.0 18.0 0.00 0.00 0.00 38 1020.0
20170625234339 70 323 13.0 18.0 0.00 0.00 0.00 38 1020.1
20170625234250 70 315 15.0 18.0 0.00 0.00 0.00 37 1020.1
20170625234148 70 299 14.0 18.0 0.00 0.00 0.00 38 1020.1
20170625234046 70 298 12.0 17.0 0.00 0.00 0.00 38 1020.1
20170625233943 70 298 11.0 18.0 0.00 0.00 0.00 39 1020.1
20170625233841 70 284 11.0 19.0 0.00 0.00 0.00 39 1020.1
20170625233752 70 296 10.0 19.0 0.00 0.00 0.00 39 1020.1
20170625233642 70 298 10.0 19.0 0.00 0.00 0.00 39 1020.1
20170625233537 70 311 11.0 19.0 0.00 0.00 0.00 39 1020.0
20170625233355 70 309 13.0 21.0 0.00 0.00 0.00 39 1020.0
20170625233251 70 301 14.0 21.0 0.00 0.00 0.00 38 1020.0
20170625233041 70 294 15.0 21.0 0.00 0.00 0.00 37 1020.0
20170625232938 70 304 16.0 21.0 0.00 0.00 0.00 37 1020.0
20170625232857 70 288 16.0 21.0 0.00 0.00 0.00 36 1020.0
20170625232747 70 288 15.0 23.0 0.00 0.00 0.00 38 1020.1
20170625232643 70 309 15.0 23.0 0.00 0.00 0.00 37 1020.0
20170625232546 70 302 15.0 23.0 0.00 0.00 0.00 37 1020.1
20170625232445 70 303 15.0 23.0 0.00 0.00 0.00 38 1020.0
20170625232342 70 324 15.0 23.0 0.00 0.00 0.00 37 1020.0
20170625232248 70 302 16.0 23.0 0.00 0.00 0.00 36 1020.0
20170625232146 70 300 17.0 23.0 0.00 0.00 0.00 36 1020.0
20170625231841 70 300 13.0 22.0 0.00 0.00 0.00 38 1020.1
20170625231751 70 292 14.0 22.0 0.00 0.00 0.00 38 1020.1
20170625231651 70 293 14.0 22.0 0.00 0.00 0.00 38 1020.1
20170625231548 70 306 16.0 22.0 0.00 0.00 0.00 38 1020.1
20170625231450 70 319 17.0 22.0 0.00 0.00 0.00 37 1019.9
20170625231349 70 298 16.0 22.0 0.00 0.00 0.00 37 1019.9
20170625231239 70 312 16.0 22.0 0.00 0.00 0.00 38 1019.9
20170625231140 70 309 16.0 22.0 0.00 0.00 0.00 38 1019.9
20170625231037 70 308 17.0 22.0 0.00 0.00 0.00 37 1020.0
20170625230959 70 323 16.0 21.0 0.00 0.00 0.00 38 1020.0
20170625230856 70 306 16.0 21.0 0.00 0.00 0.00 38 1019.9
20170625230742 70 296 16.0 21.0 0.00 0.00 0.00 37 1019.9
20170625230638 70 290 14.0 20.0 0.00 0.00 0.00 37 1020.0
20170625230558 70 293 13.0 21.0 0.00 0.00 0.00 38 1020.0
20170625230439 70 304 15.0 21.0 0.00 0.00 0.00 39 1020.0
20170625230358 70 302 15.0 21.0 0.00 0.00 0.00 39 1020.0
20170625230250 70 300 14.0 21.0 0.00 0.00 0.00 37 1019.9
20170625230147 70 321 14.0 21.0 0.00 0.00 0.00 38 1020.1
20170625230037 70 301 15.0 21.0 0.00 0.00 0.00 37 1020.0
20170625225958 70 307 14.0 21.0 0.00 0.00 0.00 38 1020.0
20170625225856 70 302 16.0 21.0 0.00 0.00 0.00 40 1020.1
20170625225751 70 305 15.0 21.0 0.00 0.00 0.00 39 1020.0
20170625225649 70 309 12.0 21.0 0.00 0.00 0.00 38 1020.0
20170625225549 70 304 10.0 20.0 0.00 0.00 0.00 43 1019.9
20170625225447 70 288 11.0 20.0 0.00 0.00 0.00 43 1020.0
20170625225345 70 315 13.0 20.0 0.00 0.00 0.00 43 1020.0
20170625225155 70 325 13.0 20.0 0.00 0.00 0.00 42 1020.1
20170625225052 70 320 11.0 16.0 0.00 0.00 0.00 44 1020.0
20170625224950 70 321 11.0 19.0 0.00 0.00 0.00 41 1020.1
20170625224848 70 295 12.0 19.0 0.00 0.00 0.00 41 1020.1
20170625224739 70 308 12.0 19.0 0.00 0.00 0.00 42 1020.1
20170625224658 70 300 12.0 19.0 0.00 0.00 0.00 43 1020.1
20170625224556 69 307 12.0 19.0 0.00 0.00 0.00 43 1020.1
20170625224452 69 317 11.0 19.0 0.00 0.00 0.00 43 1020.1
20170625224353 69 296 12.0 19.0 0.00 0.00 0.00 44 1020.1
20170625224242 69 319 13.0 19.0 0.00 0.00 0.00 43 1020.1
20170625224201 69 327 13.0 17.0 0.00 0.00 0.00 43 1020.1
20170625224121 69 309 12.0 16.0 0.00 0.00 0.00 43 1020.0
20170625224038 69 331 12.0 16.0 0.00 0.00 0.00 43 1020.1
20170625223452 68 304 12.0 21.0 0.00 0.00 0.00 42 1020.2
20170625223348 69 311 13.0 21.0 0.00 0.00 0.00 42 1020.2
20170625223250 69 304 15.0 21.0 0.00 0.00 0.00 43 1020.2
20170625223043 69 308 14.0 21.0 0.00 0.00 0.00 43 1020.2
20170625222958 69 306 15.0 21.0 0.00 0.00 0.00 42 1020.2
20170625222847 69 299 17.0 21.0 0.00 0.00 0.00 42 1020.2
20170625222738 69 326 15.0 21.0 0.00 0.00 0.00 42 1020.2
20170625222554 69 314 12.0 17.0 0.00 0.00 0.00 45 1020.1
20170625222452 69 305 12.0 21.0 0.00 0.00 0.00 45 1020.2
20170625222246 69 318 12.0 21.0 0.00 0.00 0.00 44 1020.2
20170625222142 69 323 11.0 21.0 0.00 0.00 0.00 44 1020.2
20170625222101 69 329 12.0 21.0 0.00 0.00 0.00 44 1020.2
20170625221955 70 325 13.0 21.0 0.00 0.00 0.00 43 1020.2
20170625221853 70 316 16.0 21.0 0.00 0.00 0.00 43 1020.2
20170625221745 70 293 16.0 21.0 0.00 0.00 0.00 43 1020.2
20170625221542 70 324 14.0 19.0 0.00 0.00 0.00 42 1020.2
20170625221458 70 306 14.0 21.0 0.00 0.00 0.00 42 1020.2
20170625221356 70 302 15.0 21.0 0.00 0.00 0.00 41 1020.2
20170625221245 70 304 15.0 22.0 0.00 0.00 0.00 42 1020.2
20170625221138 70 299 15.0 23.0 0.00 0.00 0.00 42 1020.2
20170625221055 70 288 14.0 23.0 0.00 0.00 0.00 41 1020.2
20170625220953 69 298 13.0 23.0 0.00 0.00 0.00 43 1020.2
20170625220852 69 313 14.0 23.0 0.00 0.00 0.00 42 1020.2
20170625220741 69 299 16.0 23.0 0.00 0.00 0.00 42 1020.2
20170625220638 70 306 18.0 23.0 0.00 0.00 0.00 41 1020.3
20170625220557 70 321 18.0 23.0 0.00 0.00 0.00 41 1020.3
20170625220455 70 295 16.0 23.0 0.00 0.00 0.00 46 1020.2
20170625220354 70 304 13.0 23.0 0.00 0.00 0.00 46 1020.2
20170625220246 70 330 12.0 17.0 0.00 0.00 0.00 44 1020.2
20170625220142 70 303 13.0 17.0 0.00 0.00 0.00 44 1020.2
20170625220042 70 321 13.0 19.0 0.00 0.00 0.00 43 1020.3
20170625215855 70 321 12.0 23.0 0.00 0.00 0.00 45 1020.2
20170625215748 70 306 12.0 23.0 0.00 0.00 0.00 45 1020.2
20170625215644 70 294 12.0 23.0 0.00 0.00 0.00 44 1020.3
20170625215541 70 292 12.0 24.0 0.00 0.00 0.00 47 1020.2
20170625215442 69 294 12.0 24.0 0.00 0.00 0.00 47 1020.2
20170625215339 69 315 15.0 24.0 0.00 0.00 0.00 45 1020.2
20170625215248 69 300 17.0 24.0 0.00 0.00 0.00 43 1020.2
20170625215147 69 297 17.0 24.0 0.00 0.00 0.00 44 1020.2
20170625215042 70 306 15.0 24.0 0.00 0.00 0.00 44 1020.2
20170625214941 70 290 16.0 24.0 0.00 0.00 0.00 44 1020.1
20170625214840 69 309 16.0 24.0 0.00 0.00 0.00 45 1020.2
20170625214752 69 309 14.0 24.0 0.00 0.00 0.00 46 1020.2
20170625214653 69 294 13.0 24.0 0.00 0.00 0.00 47 1020.2
20170625214551 69 292 13.0 23.0 0.00 0.00 0.00 46 1020.2
20170625214449 69 311 13.0 23.0 0.00 0.00 0.00 46 1020.2
20170625214348 68 288 13.0 23.0 0.00 0.00 0.00 46 1020.2
20170625214241 68 294 14.0 23.0 0.00 0.00 0.00 47 1020.2
20170625214156 68 294 16.0 23.0 0.00 0.00 0.00 47 1020.2
20170625214038 69 302 18.0 23.0 0.00 0.00 0.00 47 1020.3
20170625213958 69 316 17.0 23.0 0.00 0.00 0.00 47 1020.3
20170625213857 69 324 14.0 21.0 0.00 0.00 0.00 48 1020.2
20170625213751 68 328 11.0 21.0 0.00 0.00 0.00 48 1020.2
20170625213649 68 279 12.0 21.0 0.00 0.00 0.00 46 1020.3
20170625213539 68 302 14.0 21.0 0.00 0.00 0.00 46 1020.4
20170625213458 68 308 15.0 21.0 0.00 0.00 0.00 48 1020.4
20170625213354 68 304 17.0 21.0 0.00 0.00 0.00 47 1020.3
20170625213249 68 305 17.0 21.0 0.00 0.00 0.00 47 1020.4
20170625213147 68 306 14.0 21.0 0.00 0.00 0.00 48 1020.4
20170625213039 68 302 12.0 19.0 0.00 0.00 0.00 49 1020.4
20170625212956 68 320 12.0 19.0 0.00 0.00 0.00 49 1020.4
20170625212845 68 300 14.0 21.0 0.00 0.00 0.00 47 1020.3
20170625212759 68 290 14.0 21.0 0.00 0.00 0.00 47 1020.3
20170625212656 68 289 14.0 21.0 0.00 0.00 0.00 47 1020.4
20170625212554 68 295 13.0 21.0 0.00 0.00 0.00 48 1020.4
20170625212449 68 310 12.0 21.0 0.00 0.00 0.00 48 1020.4
20170625212254 68 304 15.0 21.0 0.00 0.00 0.00 48 1020.4
20170625212148 68 298 18.0 21.0 0.00 0.00 0.00 47 1020.4
20170625212043 68 308 17.0 21.0 0.00 0.00 0.00 47 1020.4
20170625211941 68 316 17.0 21.0 0.00 0.00 0.00 46 1020.4
20170625211842 68 313 16.0 21.0 0.00 0.00 0.00 46 1020.4
20170625211754 68 310 16.0 22.0 0.00 0.00 0.00 46 1020.4
20170625211653 68 320 15.0 22.0 0.00 0.00 0.00 46 1020.4
20170625211548 68 313 15.0 22.0 0.00 0.00 0.00 47 1020.3
20170625211449 68 302 15.0 22.0 0.00 0.00 0.00 48 1020.4
20170625211344 68 286 16.0 22.0 0.00 0.00 0.00 47 1020.4
20170625211257 68 300 15.0 22.0 0.00 0.00 0.00 47 1020.4
20170625211136 68 304 17.0 22.0 0.00 0.00 0.00 48 1020.4
20170625211053 68 316 17.0 22.0 0.00 0.00 0.00 48 1020.4
20170625210949 68 326 18.0 22.0 0.00 0.00 0.00 47 1020.3
20170625210848 68 304 17.0 20.0 0.00 0.00 0.00 47 1020.4
20170625210738 68 302 16.0 20.0 0.00 0.00 0.00 47 1020.4
20170625210657 68 298 15.0 20.0 0.00 0.00 0.00 48 1020.4
20170625210554 68 321 13.0 20.0 0.00 0.00 0.00 48 1020.3
20170625210453 68 320 12.0 19.0 0.00 0.00 0.00 49 1020.3
20170625210355 68 306 13.0 23.0 0.00 0.00 0.00 48 1020.4
20170625210242 68 299 13.0 23.0 0.00 0.00 0.00 48 1020.4
20170625210140 68 316 13.0 23.0 0.00 0.00 0.00 49 1020.4
20170625205955 68 311 14.0 23.0 0.00 0.00 0.00 48 1020.4
20170625205852 69 319 14.0 23.0 0.00 0.00 0.00 48 1020.4
20170625205743 69 309 13.0 23.0 0.00 0.00 0.00 48 1020.5
20170625205643 69 316 15.0 23.0 0.00 0.00 0.00 49 1020.4
20170625205541 69 313 15.0 23.0 0.00 0.00 0.00 49 1020.4
20170625205459 69 296 14.0 23.0 0.00 0.00 0.00 49 1020.4
20170625205358 68 309 13.0 23.0 0.00 0.00 0.00 48 1020.5
20170625205245 68 323 16.0 23.0 0.00 0.00 0.00 48 1020.5
20170625205145 68 300 17.0 23.0 0.00 0.00 0.00 48 1020.4
20170625205042 68 309 17.0 23.0 0.00 0.00 0.00 48 1020.5
20170625204943 69 317 16.0 21.0 0.00 0.00 0.00 48 1020.5
20170625204756 68 307 13.0 20.0 0.00 0.00 0.00 50 1020.5
20170625204700 68 323 12.0 21.0 0.00 0.00 0.00 50 1020.5
20170625204556 68 318 12.0 21.0 0.00 0.00 0.00 51 1020.4
20170625204450 68 321 13.0 24.0 0.00 0.00 0.00 49 1020.5
20170625204348 68 319 15.0 24.0 0.00 0.00 0.00 51 1020.5
20170625204240 68 311 16.0 24.0 0.00 0.00 0.00 50 1020.4
20170625204143 68 306 15.0 24.0 0.00 0.00 0.00 50 1020.5
20170625204041 68 295 15.0 24.0 0.00 0.00 0.00 49 1020.5
20170625203939 68 300 16.0 24.0 0.00 0.00 0.00 49 1020.5
20170625203854 68 300 18.0 24.0 0.00 0.00 0.00 49 1020.5
20170625203748 68 300 17.0 24.0 0.00 0.00 0.00 49 1020.5
20170625203646 68 313 16.0 24.0 0.00 0.00 0.00 48 1020.5
20170625203544 68 325 15.0 22.0 0.00 0.00 0.00 50 1020.6
20170625203448 68 311 16.0 22.0 0.00 0.00 0.00 49 1020.6
20170625203346 68 298 17.0 22.0 0.00 0.00 0.00 49 1020.5
20170625203259 68 298 17.0 22.0 0.00 0.00 0.00 47 1020.5
20170625203158 68 310 16.0 22.0 0.00 0.00 0.00 50 1020.5
20170625203055 68 312 15.0 22.0 0.00 0.00 0.00 48 1020.5
20170625202953 68 322 16.0 22.0 0.00 0.00 0.00 49 1020.5
20170625202848 68 310 16.0 22.0 0.00 0.00 0.00 49 1020.5
20170625202657 67 297 16.0 22.0 0.00 0.00 0.00 49 1020.6
20170625202547 68 303 15.0 22.0 0.00 0.00 0.00 49 1020.6
20170625202442 68 313 17.0 22.0 0.00 0.00 0.00 49 1020.6
20170625202339 68 317 16.0 24.0 0.00 0.00 0.00 47 1020.5
20170625202254 68 319 15.0 24.0 0.00 0.00 0.00 49 1020.5
20170625202150 68 317 12.0 24.0 0.00 0.00 0.00 50 1020.6
20170625202054 68 298 13.0 24.0 0.00 0.00 0.00 49 1020.5
20170625201944 68 288 13.0 24.0 0.00 0.00 0.00 48 1020.6
20170625201900 68 277 14.0 24.0 0.00 0.00 0.00 49 1020.6
20170625201746 68 292 17.0 24.0 0.00 0.00 0.00 48 1020.5
20170625201643 68 294 18.0 24.0 0.00 0.00 0.00 48 1020.5
20170625201540 68 302 16.0 24.0 0.00 0.00 0.00 49 1020.6
20170625201457 68 302 14.0 21.0 0.00 0.00 0.00 51 1020.6
20170625201347 68 305 15.0 21.0 0.00 0.00 0.00 51 1020.6
20170625201243 68 302 15.0 21.0 0.00 0.00 0.00 50 1020.6
20170625201140 68 311 13.0 25.0 0.00 0.00 0.00 53 1020.6
20170625201056 68 294 11.0 25.0 0.00 0.00 0.00 52 1020.6
20170625200953 68 311 12.0 25.0 0.00 0.00 0.00 53 1020.6
20170625200846 68 303 14.0 25.0 0.00 0.00 0.00 51 1020.6
20170625200739 67 298 15.0 25.0 0.00 0.00 0.00 52 1020.6
20170625200638 67 313 16.0 25.0 0.00 0.00 0.00 52 1020.7
20170625200541 67 313 18.0 25.0 0.00 0.00 0.00 50 1020.5
20170625200441 67 301 17.0 25.0 0.00 0.00 0.00 50 1020.5
20170625200339 67 306 17.0 23.0 0.00 0.00 0.00 50 1020.5
20170625200253 67 271 17.0 23.0 0.00 0.00 0.00 50 1020.5
20170625200152 67 290 17.0 23.0 0.00 0.00 0.00 50 1020.6
20170625200049 67 298 17.0 23.0 0.00 0.00 0.00 50 1020.6
20170625195947 67 296 18.0 23.0 0.00 0.00 0.00 50 1020.6
20170625195848 67 295 19.0 23.0 0.00 0.00 0.00 49 1020.6
20170625195741 67 302 18.0 23.0 0.00 0.00 0.00 50 1020.6
20170625195640 67 308 17.0 23.0 0.00 0.00 0.00 52 1020.6
20170625195558 67 307 16.0 26.0 0.00 0.00 0.00 52 1020.6
20170625195450 67 296 18.0 26.0 0.00 0.00 0.00 52 1020.6
20170625195348 67 300 17.0 26.0 0.00 0.00 0.00 52 1020.6
20170625195241 67 290 18.0 26.0 0.00 0.00 0.00 52 1020.6
20170625195141 67 288 17.0 26.0 0.00 0.00 0.00 53 1020.6
20170625195038 67 312 16.0 26.0 0.00 0.00 0.00 52 1020.7
20170625194957 67 321 16.0 26.0 0.00 0.00 0.00 54 1020.7
20170625194856 67 310 18.0 26.0 0.00 0.00 0.00 55 1020.7
20170625194747 67 317 17.0 26.0 0.00 0.00 0.00 56 1020.6
20170625194644 67 284 13.0 21.0 0.00 0.00 0.00 56 1020.7
20170625194541 66 308 14.0 21.0 0.00 0.00 0.00 54 1020.7
20170625194440 66 304 16.0 21.0 0.00 0.00 0.00 53 1020.7
20170625194358 66 307 18.0 21.0 0.00 0.00 0.00 53 1020.7
20170625194248 66 306 18.0 20.0 0.00 0.00 0.00 54 1020.7
20170625194147 66 315 16.0 20.0 0.00 0.00 0.00 55 1020.7
20170625194043 66 299 15.0 20.0 0.00 0.00 0.00 54 1020.7
20170625193941 66 315 14.0 20.0 0.00 0.00 0.00 54 1020.7
20170625193838 66 317 15.0 20.0 0.00 0.00 0.00 55 1020.7
20170625193757 66 307 14.0 20.0 0.00 0.00 0.00 54 1020.7
20170625193653 66 326 13.0 20.0 0.00 0.00 0.00 54 1020.7
20170625193551 66 300 13.0 20.0 0.00 0.00 0.00 55 1020.7
20170625193450 66 323 13.0 20.0 0.00 0.00 0.00 57 1020.7
20170625193348 66 317 13.0 21.0 0.00 0.00 0.00 54 1020.7
20170625193240 66 312 14.0 21.0 0.00 0.00 0.00 55 1020.7
20170625193157 66 317 15.0 22.0 0.00 0.00 0.00 55 1020.7
20170625193059 66 307 14.0 22.0 0.00 0.00 0.00 54 1020.7
20170625192957 66 317 12.0 22.0 0.00 0.00 0.00 57 1020.7
20170625192854 66 309 11.0 22.0 0.00 0.00 0.00 57 1020.8
20170625192744 66 304 13.0 22.0 0.00 0.00 0.00 56 1020.8
20170625192642 66 299 14.0 22.0 0.00 0.00 0.00 56 1020.8
20170625192539 66 305 16.0 22.0 0.00 0.00 0.00 55 1020.8
20170625192459 66 286 17.0 22.0 0.00 0.00 0.00 55 1020.8
20170625192340 66 296 16.0 23.0 0.00 0.00 0.00 55 1020.7
20170625192249 66 306 16.0 23.0 0.00 0.00 0.00 55 1020.7
20170625192146 66 309 16.0 23.0 0.00 0.00 0.00 54 1020.8
20170625192059 66 306 15.0 23.0 0.00 0.00 0.00 54 1020.8
20170625191957 66 302 15.0 23.0 0.00 0.00 0.00 58 1020.8
20170625191853 66 315 15.0 23.0 0.00 0.00 0.00 54 1020.8
20170625191747 66 310 17.0 23.0 0.00 0.00 0.00 57 1020.8
20170625191648 66 301 16.0 23.0 0.00 0.00 0.00 56 1020.8
20170625191545 66 296 15.0 22.0 0.00 0.00 0.00 56 1020.8
20170625191442 66 311 15.0 22.0 0.00 0.00 0.00 55 1020.8
20170625191340 65 292 15.0 22.0 0.00 0.00 0.00 55 1020.9
20170625191251 65 294 16.0 22.0 0.00 0.00 0.00 55 1020.9
20170625191147 65 296 15.0 23.0 0.00 0.00 0.00 56 1020.9
20170625191040 65 293 15.0 23.0 0.00 0.00 0.00 57 1021.0
20170625190940 65 313 14.0 23.0 0.00 0.00 0.00 56 1020.9
20170625190856 65 307 15.0 24.0 0.00 0.00 0.00 56 1020.9
20170625190745 65 306 18.0 24.0 0.00 0.00 0.00 55 1021.0
20170625190642 66 328 19.0 24.0 0.00 0.00 0.00 55 1021.0